Weather History for Montreal Mirabel, QC

Change the Weather History Date:

Wednesday, April 24, 2013

  Actual Average Record
Temperature  
Mean Temperature 52 °F -  
Max Temperature 68 °F 53 °F 68 °F (2013)
Min Temperature 35 °F 34 °F 28 °F (1999)
Degree Days  
Heating Degree Days 14    
Growing Degree Days 2 (Base 50)    
Moisture  
Dew Point 41 °F    
Average Humidity 68    
Maximum Humidity 94    
Minimum Humidity 30    
Precipitation  
Precipitation 0.00 in - - ()
Sea Level Pressure  
Sea Level Pressure 29.82 in    
Wind  
Wind Speed 7 mph ()    
Max Wind Speed 15 mph    
Max Gust Speed 23 mph    
Visibility 16.7 miles    
Events Rain    
Averages and records for this station are not official NWS values.
T = Trace of Precipitation, MM = Missing Value Source: Averaged Metar Reports

Daily Weather History Graph

Daily Weather History Graph

Search for Another Location

Airport:

Trip Planner

Search our weather history database for the weather conditions in past years. The results will help you decide how hot, cold, wet, or windy it might be!

Date:

Astronomy

Apr. 24, 2013 Rise Set
Actual Time 5:54 AM EDT 7:54 PM EDT
Civil Twilight 5:22 AM EDT 8:26 PM EDT
Nautical Twilight 4:43 AM EDT 9:06 PM EDT
Astronomical Twilight 3:59 AM EDT 9:50 PM EDT
Moon 6:53 PM EDT (4/24) 5:00 AM EDT (4/24)
Length of Visible Light 15h 04m
Length of Day
14h 00m
Waxing Gibbous, 98% of the Moon is Illuminated
Apr 24
Waxing Gibbous
Apr 25
Full
May 2
Last Quarter
May 9
New
May 18
First Quarter

Hourly Weather History & Observations

Time (EDT) Temp. Windchill Dew Point Humidity Pressure Visibility Wind Dir Wind Speed Gust Speed Precip Events Conditions
12:00 AM 44.6 °F 38.8 °F 37.4 °F 76% 30.09 in 25.0 mi SSE 11.5 mph - N/A   Clear
1:00 AM 41.0 °F 39.0 °F 35.6 °F 81% 30.09 in 25.0 mi ENE 3.5 mph - N/A   Clear
2:00 AM 41.0 °F 36.4 °F 35.6 °F 81% 30.06 in 25.0 mi NE 6.9 mph - N/A   Clear
3:00 AM 39.2 °F 35.0 °F 33.8 °F 81% 30.05 in 25.0 mi NNE 5.8 mph - N/A   Clear
4:00 AM 35.6 °F 30.7 °F 33.8 °F 93% 30.04 in 25.0 mi NNE 5.8 mph - N/A   Partly Cloudy
5:00 AM 37.4 °F 32.8 °F 33.8 °F 87% 30.02 in 25.0 mi NNE 5.8 mph - N/A   Partly Cloudy
6:00 AM 35.6 °F 31.7 °F 33.8 °F 93% 30.01 in 25.0 mi NNE 4.6 mph - N/A   Partly Cloudy
7:00 AM 37.4 °F 32.8 °F 35.6 °F 93% 30.01 in 45.0 mi NNE 5.8 mph - N/A   Mostly Cloudy
8:00 AM 42.8 °F 38.6 °F 37.4 °F 81% 29.99 in 45.0 mi NE 6.9 mph - N/A   Mostly Cloudy
9:00 AM 46.4 °F 42.4 °F 39.2 °F 76% 29.97 in 45.0 mi ENE 8.1 mph - N/A   Mostly Cloudy
10:00 AM 53.6 °F - 41.0 °F 62% 29.92 in 35.0 mi East 11.5 mph - N/A   Mostly Cloudy
11:00 AM 55.4 °F - 41.0 °F 58% 29.89 in 45.0 mi ESE 8.1 mph - N/A   Overcast
12:00 PM 59.0 °F - 41.0 °F 51% 29.87 in 35.0 mi ENE 9.2 mph - N/A   Overcast
1:00 PM 62.6 °F - 44.6 °F 52% 29.81 in 35.0 mi East 11.5 mph - N/A   Mostly Cloudy
2:00 PM 64.4 °F - 39.2 °F 40% 29.75 in 45.0 mi ESE 9.2 mph - N/A   Mostly Cloudy
3:00 PM 68.0 °F - 41.0 °F 37% 29.71 in 45.0 mi East 9.2 mph 18.4 mph N/A   Mostly Cloudy
4:00 PM 68.0 °F - 39.2 °F 35% 29.67 in 45.0 mi East 9.2 mph - N/A   Mostly Cloudy
5:00 PM 68.0 °F - 35.6 °F 30% 29.64 in 45.0 mi SE 5.8 mph - N/A   Mostly Cloudy
6:00 PM 68.0 °F - 39.2 °F 35% 29.61 in 45.0 mi SE 6.9 mph - N/A   Overcast
6:40 PM 64.4 °F - 44.6 °F 49% 29.62 in 20.0 mi WSW 4.6 mph - N/A Rain Light Rain
7:00 PM 60.8 °F - 48.2 °F 63% 29.63 in 15.0 mi West 8.1 mph - N/A Rain Light Rain
7:43 PM 57.2 °F - 50.0 °F 77% 29.61 in 20.0 mi WNW 4.6 mph - N/A   Overcast
8:00 PM 57.2 °F - 50.0 °F 77% 29.57 in 20.0 mi NNW 4.6 mph - N/A   Overcast
9:00 PM 55.4 °F - 50.0 °F 82% 29.58 in 25.0 mi SSE 4.6 mph - N/A   Overcast
9:28 PM 55.4 °F - 50.0 °F 82% 29.58 in 15.0 mi SSE 4.6 mph - N/A Rain Light Rain
11:00 PM 55.4 °F - 53.6 °F 94% 29.58 in 10.0 mi SSW 15.0 mph 23.0 mph N/A Rain Light Rain